Regional Weather Roundup
Issued by NWS San Angelo, TX

Home | Current Version | Previous Version | Text Only | Print | Product List | Glossary On
Versions: 1 2 3 4 5 6 7 8 9 10 11 12 13 14 15 16 17 18 19 20 21 22 23 24 25 26 27 28 29 30 31 32 33 34 35 36 37 38 39 40 41 42 43 44 45 46 47 48 49 50
000
ASUS44 KSJT 010510
RWRSJT
WEST CENTRAL TEXAS REGIONAL WEATHER ROUNDUP
NATIONAL WEATHER SERVICE SAN ANGELO TX
1200 AM CDT WED JUL 01 2015

NOTE: "FAIR" INDICATES FEW OR NO CLOUDS BELOW 12,000 FEET WITH NO
SIGNIFICANT WEATHER AND/OR OBSTRUCTIONS TO VISIBILITY.

TXZ049-054-064>066-071>073-076>078-098-099-113-114-127-128-139-140-
154-155-168>170-010600
...LOCATIONS ACROSS WEST CENTRAL TEXAS...

CITY           SKY/WX    TMP DP  RH WIND       PRES   REMARKS
SAN ANGELO     NOT AVBL
ABILENE        NOT AVBL
DYESS AFB      CLEAR     76  69  80 S9        30.03R
JUNCTION       NOT AVBL
SWEETWATER     CLEAR     75  69  80 SE7       30.09R
BROWNWOOD      CLOUDY    75  66  73 SE3       30.05R
COLEMAN        MOCLDY    75  69  79 S3        30.06S
SONORA         CLEAR     73  68  83 SE5       30.13R
OZONA          FAIR      72  64  78 CALM      30.11R
BRADY          CLEAR     73  68  83 N6        30.06R
$$

TEXAS PANHANDLE/OKLAHOMA PANHANDLE

CITY           SKY/WX    TMP DP  RH WIND       PRES   REMARKS
AMARILLO       NOT AVBL
BORGER         NOT AVBL
CANADIAN       PTCLDY    78  64  62 S15       29.99S
DALHART        NOT AVBL
DUMAS          CLEAR     71  54  54 S13       30.06F
GUYMON         NOT AVBL
HEREFORD       CLEAR     67  58  74 MISG      30.11R
PAMPA          CLEAR     69  58  67 S10       30.07R
PERRYTON       CLEAR     73  59  60 S10       30.00S
$$

SOUTHERN PANHANDLE/SOUTH PLAINS/ROLLING PLAINS

CITY           SKY/WX    TMP DP  RH WIND       PRES   REMARKS
LUBBOCK        NOT AVBL
SNYDER         CLEAR     76  69  80 SE8       30.07S
CHILDRESS      NOT AVBL
SEMINOLE       CLEAR     73  62  68 S8        30.11R
$$

PERMIAN BASIN

CITY           SKY/WX    TMP DP  RH WIND       PRES   REMARKS
MIDLAND        NOT AVBL
ODESSA         NOT AVBL
WINK           NOT AVBL
$$

FAR WEST/SOUTHWEST MOUNTAINS/TRANS PECOS

CITY           SKY/WX    TMP DP  RH WIND       PRES   REMARKS
ALPINE         CLEAR     66  61  84 NW6       30.21R
DRYDEN           N/A     76  68  76 E9        30.05R
EL PASO        NOT AVBL
FORT STOCKTON  NOT AVBL
GUADALUPE PASS PTCLDY    68  51  54 NE13      30.23R
MARFA          NOT AVBL
PECOS          CLEAR     78  62  56 SE14      30.04R
$$

DALLAS/FORT WORTH METROPLEX

CITY           SKY/WX    TMP DP  RH WIND       PRES   REMARKS
DFW AIRPORT    NOT AVBL
FTW MEACHAM    NOT AVBL
DAL-EXECUTIVE  NOT AVBL
GRAND PRAIRIE  PTCLDY    79  70  75 S9        30.02F
ADDISON        PTCLDY    82  72  71 S7        30.03S
MESQUITE       CLEAR     77  71  81 S7        30.02S
LANCASTER      PTCLDY    75  69  81 S3        30.03S
$$

NORTH CENTRAL TEXAS

CITY           SKY/WX    TMP DP  RH WIND       PRES   REMARKS
SHRMAN/DENISON CLEAR     81  74  80 S8        30.01S
GAINESVILLE    PTCLDY    76  70  81 S7        30.02S
BRIDGEPORT     CLEAR     79  69  72 S10       30.02S
DENTON         NOT AVBL
WAXAHACHIE     PTCLDY    74  70  86 S3        30.03F
GRANBURY       CLOUDY    78  69  75 S3        30.03S
$$

WESTERN NORTH TEXAS

CITY           SKY/WX    TMP DP  RH WIND       PRES   REMARKS
WICHITA FALLS  NOT AVBL
VERNON         CLEAR     81  59  46 SW5       29.99S
BRECKENRIDGE   CLEAR     80  68  65 S8        30.02S
COMANCHE       CLOUDY    74  69  84 S3        30.05S
$$

CENTRAL AND SOUTH CENTRAL TEXAS

CITY           SKY/WX    TMP DP  RH WIND       PRES   REMARKS
AUSTIN/BERGSTM NOT AVBL
WACO           NOT AVBL
HILLSBORO      PTCLDY    73  68  84 SE7       30.03S
TEMPLE         NOT AVBL
KILLEEN-GRAY   CLEAR     72  70  94 S8        30.04R
FORT HOOD      MOCLDY    73  71  93 SE8       30.04R
GEORGETOWN     NOT AVBL
LAGO VISTA     CLOUDY    74  73  95 S6        30.08R
SAN MARCOS     NOT AVBL
NEW BRAUNFELS  NOT AVBL
RANDOLPH AFB   PTCLDY    72  70  92 SE6       30.07R
SAN ANTONIO    NOT AVBL
STINSON        NOT AVBL
PLEASANTON     NOT AVBL
LA GRANGE      CLEAR     76  74  92 S6        30.04F
GIDDINGS       CLEAR     74  73  95 CALM      30.09F
$$

EAST TEXAS

CITY           SKY/WX    TMP DP  RH WIND       PRES   REMARKS
PARIS          NOT AVBL
CLARKSVILLE    NOT AVBL
TYLER          NOT AVBL
LONGVIEW       NOT AVBL
PALESTINE      PTCLDY    73  70  92 SE5       30.05S
NACOGDOCHES    NOT AVBL
$$

TEXAS HILL COUNTRY AND EDWARDS PLATEAU

CITY           SKY/WX    TMP DP  RH WIND       PRES   REMARKS
LLANO          CLEAR     73  70  88 CALM      30.09R
HORSESHOE BAY  FAIR      73  70  88 CALM      30.07R
KERRVILLE      PTCLDY    72  68  89 SE3       30.09R
FREDERICKSBRG  CLEAR     71  68  91 S3        30.09R
ROCKSPRINGS    PTCLDY    70  68  94 SE9       30.11F
HONDO          NOT AVBL
UVALDE         PTCLDY    72  70  96 E7        30.06S
DEL RIO        NOT AVBL
$$

SOUTHEAST TEXAS

CITY           SKY/WX    TMP DP  RH WIND       PRES   REMARKS
COLLEGE STN    PTCLDY    73  71  93 S6        30.05S
CALDWELL       CLEAR     73  73 100 S6        30.07F
CROCKETT       MOCLDY    75  73  94 S5        30.08R
BRENHAM        CLEAR     76  74  94 S6        30.06S
HUNTSVILLE     NOT AVBL
CONROE         NOT AVBL
HOUSTON BUSH   NOT AVBL
HOUSTON HOBBY  NOT AVBL
PERLAND        NOT AVBL
WHARTON        MOCLDY    73  72  94 CALM      30.06F
$$

THE UPPER TEXAS COAST

CITY           SKY/WX    TMP DP  RH WIND       PRES   REMARKS
ORANGE         PTCLDY    70  70 100 CALM      30.07R
PORT ARTHUR    NOT AVBL
GALVESTON      NOT AVBL
ANGLETON       NOT AVBL
BAY CITY       MOCLDY    77  75  93 S5        30.05S
$$

TEXAS COASTAL BEND, RIO GRANDE PLAINS DEEP SOUTH TEXAS

CITY           SKY/WX    TMP DP  RH WIND       PRES   REMARKS
VICTORIA       NOT AVBL
BEEVILLE       FAIR     N/A N/A N/A E3        30.05F
ROCKPORT       NOT AVBL
PORT ARANSAS   PTCLDY   N/A N/A N/A SE6       30.03F
PORT LAVACA    PTCLDY    75  73  94 S3        30.05S
CORPUS CHRISTI MOCLDY    77  72  84 E6        30.03F
KINGSVILLE NAS MOCLDY    76  75  97 E5        30.03S
COTULLA        NOT AVBL
LAREDO         MOCLDY    79  73  81 E9        30.03R
BROWNSVILLE    PTCLDY    78  75  90 SE5       30.01F
PORT ISABEL    NOT AVBL
HEBBRONVILLE     N/A     74  72  92 E7        30.05R
MCALLEN        NOT AVBL
WESLACO        PTCLDY    78  72  82 S6        30.02S
FALFURRIAS     MOCLDY    76  72  86 E3        30.03R
EDINBURG       PTCLDY    79  73  80 SE5       30.03S
$$


USA.gov is the U.S. government's official web portal to all federal, state and local government web resources and services.